Raleigh-Durham Airport, NC

5:41 AM EDT on May 23, 2018 (GMT -0400)
Raleigh-Durham International

Weather History for KRDU - April, 2012

Change the Weather History Date:

Monday, April 9, 2012

  Actual Average Record
Temperature  
Mean Temperature 60 °F 59 °F  
Max Temperature 74 °F 71 °F 91 °F (1893)
Min Temperature 45 °F 46 °F 23 °F (1972)
Degree Days  
Heating Degree Days 5 8  
Month to date heating degree days 63 77  
Since 1 July heating degree days 2389 3073  
Cooling Degree Days 0 1  
Month to date cooling degree days 6 9  
Year to date cooling degree days 54 21  
Growing Degree Days 10 (Base 50)    
Moisture  
Dew Point 35 °F    
Average Humidity 43    
Maximum Humidity 61    
Minimum Humidity 24    
Precipitation  
Precipitation 0.00 in 0.11 in 2.09 in (1897)
Month to date precipitation 0.84 0.95  
Year to date precipitation 10.10 11.79  
Snow  
Snow 0.00 in 0.00 in 0.00 in (2002)
Month to date snowfall 0.0 0.1  
Since 1 July snowfall 0.9 6.1  
Snow Depth 0.00 in    
Sea Level Pressure  
Sea Level Pressure 29.95 in    
Wind  
Wind Speed 7 mph (WSW)    
Max Wind Speed 22 mph    
Max Gust Speed 32 mph    
Visibility 10 miles    
Events      
T = Trace of Precipitation, MM = Missing Value Source: NWS Daily Summary

Daily Weather History Graph

Daily Weather History Graph

Search for Another Location

Airport or City:

Astronomy

Apr. 09, 2012 Rise Set
Actual Time 6:49 AM EDT 7:44 PM EDT
Civil Twilight 6:23 AM EDT 8:10 PM EDT
Nautical Twilight 5:52 AM EDT 8:41 PM EDT
Astronomical Twilight 5:20 AM EDT 9:13 PM EDT
Moon 11:29 PM EDT (4/9) 8:42 AM EDT (4/9)
Length of Visible Light 13h 46m
Length of Day
12h 54m
Waning Gibbous, 88% of the Moon is Illuminated
Apr 9
Waning Gibbous
Apr 13
Last Quarter
Apr 21
New
Apr 29
First Quarter
May 5
Full

Hourly Weather History & Observations

Time (EDT) Temp. Dew Point Humidity Pressure Visibility Wind Dir Wind Speed Gust Speed Precip Events Conditions
12:51 AM 59.0 °F 39.9 °F 49% 29.96 in 10.0 mi Variable 3.5 mph - N/A   Partly Cloudy
1:51 AM 60.1 °F 36.0 °F 41% 29.96 in 10.0 mi NW 5.8 mph - N/A   Partly Cloudy
2:51 AM 61.0 °F 32.0 °F 34% 29.98 in 10.0 mi NNW 4.6 mph - N/A   Scattered Clouds
3:51 AM 57.9 °F 32.0 °F 37% 29.99 in 10.0 mi Calm Calm - N/A   Scattered Clouds
4:51 AM 55.0 °F 33.1 °F 43% 30.01 in 10.0 mi Calm Calm - N/A   Mostly Cloudy
5:51 AM 51.1 °F 33.1 °F 50% 30.03 in 10.0 mi Calm Calm - N/A   Scattered Clouds
6:51 AM 48.0 °F 35.1 °F 61% 30.05 in 10.0 mi SE 3.5 mph - N/A   Scattered Clouds
7:51 AM 48.0 °F 36.0 °F 63% 30.06 in 10.0 mi Calm Calm - N/A   Partly Cloudy
8:51 AM 55.9 °F 36.0 °F 47% 30.05 in 10.0 mi Calm Calm - N/A   Partly Cloudy
9:51 AM 61.0 °F 35.1 °F 38% 30.05 in 10.0 mi West 3.5 mph - N/A   Partly Cloudy
10:51 AM 64.0 °F 33.1 °F 31% 30.05 in 10.0 mi West 5.8 mph - N/A   Clear
11:51 AM 66.9 °F 34.0 °F 30% 30.03 in 10.0 mi Variable 3.5 mph 18.4 mph N/A   Clear
12:51 PM 69.8 °F 35.6 °F 28% 30.00 in 10.0 mi WSW 15.0 mph 23.0 mph N/A   Partly Cloudy
1:51 PM 71.1 °F 33.1 °F 25% 29.96 in 10.0 mi West 9.2 mph 24.2 mph N/A   Clear
2:51 PM 72.0 °F 36.0 °F 27% 29.94 in 10.0 mi WSW 16.1 mph 28.8 mph N/A   Partly Cloudy
3:51 PM 73.0 °F 36.0 °F 26% 29.91 in 10.0 mi West 13.8 mph 18.4 mph N/A   Partly Cloudy
4:51 PM 72.0 °F 34.0 °F 25% 29.88 in 10.0 mi West 9.2 mph 20.7 mph N/A   Partly Cloudy
5:51 PM 72.0 °F 32.0 °F 23% 29.86 in 10.0 mi WSW 11.5 mph 19.6 mph N/A   Clear
6:51 PM 69.8 °F 32.0 °F 25% 29.84 in 10.0 mi WSW 12.7 mph - N/A   Clear
7:51 PM 63.0 °F 37.0 °F 38% 29.84 in 10.0 mi SW 9.2 mph - N/A   Clear
8:51 PM 60.1 °F 37.0 °F 42% 29.85 in 10.0 mi WSW 8.1 mph - N/A   Clear
9:51 PM 57.9 °F 37.9 °F 47% 29.86 in 10.0 mi SW 10.4 mph - N/A   Clear
10:51 PM 57.9 °F 37.9 °F 47% 29.87 in 10.0 mi WSW 8.1 mph - N/A   Clear
11:51 PM 59.0 °F 36.0 °F 42% 29.87 in 10.0 mi WSW 3.5 mph - N/A   Clear